User: anonymous   Login
Location: Bangkok
(13.7500°N, 100.5170°E)
Time: 19:33:26
(UTC+07:00)
Language:

SPOT 1/Viking Rocket - Orbit

View from above orbital plane
View from above orbital plane
View from above satellite
View from above satellite

Ground track
Ground track

The orbit data is extracted from the following two-line orbital elements,

1 16615U 86019C   16150.82273780  .00000060  00000-0  39299-4 0  9995
2 16615  98.6593 214.0334 0013014  94.0293  21.8837 14.31593868584648
Epoch (UTC): 29 May 2016 19:44:44
Eccentricity: 0.0013014
inclination: 98.6593°
perigee height: 777 km
apogee height: 796 km
right ascension of ascending node: 214.0334°
argument of perigee: 94.0293°
revolutions per day: 14.31593868
mean anomaly at epoch: 21.8837°
orbit number at epoch: 58464

The dashed part of the orbit path shows where the satellite is in the earth's shadow,  

DLR